Location: Cabo di Oristano
(39.8500°N, 8.4333°E)
Time: 16:45:43
(UTC+00:00)

Meteor 2-21 - Pass Details

Date: 31 January 2023
Orbit: 935 x 965 km, 82.5° (Epoch: 01 April)

Event Time Altitude Azimuth Distance (km) Brightness Sun altitude
Exits shadow 04:11:37 78° 246° (WSW) 961 4.2 -27.8°
Maximum altitude 04:11:51 80° 277° (W) 956 4.2 -27.8°
Drops below altitude 10° 04:17:55 10° 5° (N) 2,653 6.8 -26.6°
Sets 04:20:25 0° 7° (N) 3,600 7.5 -26.1°
